Time,TemperatureF,DewpointF,PressureIn,WindDirection,WindDirectionDegrees,WindSpeedMPH,WindSpeedGustMPH,Humidity,HourlyPrecipIn,Conditions,Clouds,dailyrainin,SoftwareType,DateUTC
2013-02-13 00:17:00,28.6,15.7,29.91,West,270,0.0,0.0,58,0.00,,,0.00,open2300-1.11,2013-02-13 06:17:00,
2013-02-13 01:17:00,27.0,14.9,29.90,West,270,0.0,0.0,60,0.00,,,0.00,open2300-1.11,2013-02-13 07:17:00,
2013-02-13 02:17:00,25.5,14.2,29.89,West,270,0.0,0.0,62,0.00,,,0.00,open2300-1.11,2013-02-13 08:17:00,
2013-02-13 03:17:00,24.6,13.8,29.89,West,270,0.0,0.0,63,0.00,,,0.00,open2300-1.11,2013-02-13 09:17:00,
2013-02-13 04:17:00,23.9,13.8,29.87,NW,315,0.0,0.0,65,0.00,,,0.00,open2300-1.11,2013-02-13 10:17:00,
2013-02-13 05:17:00,23.4,14.0,29.86,NW,315,0.0,0.0,67,0.00,,,0.00,open2300-1.11,2013-02-13 11:17:00,
2013-02-13 06:17:00,23.0,14.0,29.85,NW,315,0.0,0.0,68,0.00,,,0.00,open2300-1.11,2013-02-13 12:17:00,
2013-02-13 07:17:00,22.6,14.4,29.86,WSW,247,0.0,0.0,70,0.00,,,0.00,open2300-1.11,2013-02-13 13:17:00,
2013-02-13 08:17:00,25.3,17.2,29.86,WSW,247,0.0,0.0,71,0.00,,,0.00,open2300-1.11,2013-02-13 14:17:00,
2013-02-13 09:17:00,30.2,21.9,29.86,WSW,247,1.1,2.7,71,0.00,,,0.00,open2300-1.11,2013-02-13 15:17:00,
2013-02-13 10:17:00,35.4,25.5,29.84,SSW,202,0.0,4.0,67,0.00,,,0.00,open2300-1.11,2013-02-13 16:17:00,
2013-02-13 11:17:00,43.7,29.9,29.84,West,270,3.1,4.5,58,0.00,,,0.00,open2300-1.11,2013-02-13 17:17:00,
2013-02-13 12:17:00,49.3,30.9,29.81,WSW,247,2.5,6.5,49,0.00,,,0.00,open2300-1.11,2013-02-13 18:17:00,
2013-02-13 13:17:00,51.8,29.9,29.78,South,180,7.8,9.8,43,0.00,,,0.00,open2300-1.11,2013-02-13 19:17:00,
2013-02-13 14:17:00,54.3,30.5,29.76,West,270,5.8,8.3,40,0.00,,,0.00,open2300-1.11,2013-02-13 20:17:00,
2013-02-13 15:17:00,55.9,29.1,29.74,West,270,3.4,10.7,36,0.00,,,0.00,open2300-1.11,2013-02-13 21:17:00,
2013-02-13 16:17:00,56.8,27.8,29.74,WNW,292,4.9,11.2,33,0.00,,,0.00,open2300-1.11,2013-02-13 22:17:00,
2013-02-13 17:17:00,53.8,27.9,29.73,SSE,157,2.7,9.2,37,0.00,,,0.00,open2300-1.11,2013-02-13 23:17:00,
2013-02-13 18:17:00,49.8,27.0,29.74,WSW,247,0.0,6.9,41,0.00,,,0.00,open2300-1.11,2013-02-14 00:17:00,
2013-02-13 19:17:00,47.5,26.0,29.75,West,270,0.0,4.7,43,0.00,,,0.00,open2300-1.11,2013-02-14 01:17:00,
2013-02-13 20:17:00,44.1,25.6,29.76,WSW,247,0.0,4.0,48,0.00,,,0.00,open2300-1.11,2013-02-14 02:17:00,
2013-02-13 21:17:00,41.2,24.3,29.77,WSW,247,0.0,2.5,51,0.00,,,0.00,open2300-1.11,2013-02-14 03:17:00,
2013-02-13 22:17:00,39.2,23.8,29.77,WSW,247,0.0,0.0,54,0.00,,,0.00,open2300-1.11,2013-02-14 04:17:00,
2013-02-13 23:17:00,38.5,24.9,29.79,WSW,247,0.0,4.5,58,0.00,,,0.00,open2300-1.11,2013-02-14 05:17:00,